This demonstration page uses our WeatherBlox Daily Observations layout. Learn more.

41.55636, -103.73856

Hourly Observations for September 22, 2017

Temp ( °F °C ) Dew Point ( °F °C ) Humidity (%) Winds ( mph kmh ) Pressure ( in mb ) Visibility ( mi km ) Precip ( " mm )
12:53 am 00:53 Clear 59 15 40 4.4 49 49 Calm 29.49 999 10 16.0934 0 0
1:53 am 01:53 Clear 56 13.3 40 4.4 55 55 NW 10 17 29.54 1000 10 16.0934 0 0
2:53 am 02:53 Clear 52 11.1 40 4.4 64 64 NNW 5 7 29.57 1001 10 16.0934 0 0
3:53 am 03:53 Clear 48 8.9 40 4.4 74 74 Calm 29.62 1003 10 16.0934 0 0
4:53 am 04:53 Clear 48 8.9 40 4.4 74 74 W 3 6 29.65 1004 10 16.0934 0 0
5:53 am 05:53 Clear 44 6.7 40 4.4 85 85 NW 5 7 29.68 1005 10 16.0934 0 0
6:53 am 06:53 Sunny 43 6.1 39 3.9 86 86 WNW 7 11 29.71 1006 10 16.0934 0 0
7:53 am 07:53 Sunny 46 7.8 40 4.4 79 79 WNW 9 15 29.72 1007 10 16.0934 0 0
8:53 am 08:53 Sunny 52 11.1 40 4.4 64 64 WNW 9 15 29.75 1008 10 16.0934 0 0
9:53 am 09:53 Sunny 57 13.9 40 4.4 53 53 NW 6 9 29.76 1008 10 16.0934 0 0
10:53 am 10:53 Sunny 60 15.6 41 5 50 50 Calm 29.76 1008 10 16.0934 0 0
11:53 am 11:53 Sunny 64 17.8 42 5.6 45 45 VRB 6 9 29.74 1007 10 16.0934 0 0
12:53 pm 12:53 Sunny 70 21.1 43 6.1 38 38 undefined N/A 29.73 1007 10 16.0934 0 0
1:53 pm 13:53 Sunny 72 22.2 40 4.4 31 31 WNW 7 11 29.72 1007 10 16.0934 0 0
2:53 pm 14:53 Sunny 75 23.9 40 4.4 28 28 N 14 22 29.72 1006 10 16.0934 0 0
3:53 pm 15:53 Sunny 74 23.3 40 4.4 29 29 N 9 15 29.73 1007 10 16.0934 0 0
4:53 pm 16:53 Sunny 71 21.7 45 7.2 39 39 NE 7 11 29.74 1007 10 16.0934 0 0
5:53 pm 17:53 Sunny 69 20.6 43 6.1 39 39 E 6 9 29.78 1008 10 16.0934 0 0
6:53 pm 18:53 Partly Cloudy 66 18.9 42 5.6 42 42 NNE 6 9 29.79 1009 10 16.0934 0 0
7:53 pm 19:53 Partly Cloudy 61 16.1 43 6.1 52 52 NE 8 13 29.8 1009 10 16.0934 0.01 0.254
8:53 pm 20:53 Cloudy with Light Rain 57 13.9 45 7.2 64 64 NNE 15 24 29.84 1010 9 14.48406 0 0.0254
9:53 pm 21:53 Clear 54 12.2 42 5.6 64 64 NNE 10 17 29.87 1012 10 16.0934 0 0.0254
10:53 pm 22:53 Clear 51 10.6 40 4.4 66 66 NNE 9 15 29.88 1012 10 16.0934 0 0
11:53 pm 23:53 Clear 50 10 38 3.3 63 63 ENE 8 13 29.9 1012 10 16.0934 0 0

Powered by AerisWeather